TimeEST,TemperatureF,Dew PointF,Humidity,Sea Level PressureIn,VisibilityMPH,Wind Direction,Wind SpeedMPH,Gust SpeedMPH,PrecipitationIn,Events,Conditions,WindDirDegrees,DateUTC
12:55 AM,30.0,21.9,72,30.45,10.0,SSE,5.8,-,N/A,,Clear,150,2012-11-14 05:55:00
1:55 AM,28.9,21.9,75,30.46,10.0,SSE,5.8,-,N/A,,Mostly Cloudy,150,2012-11-14 06:55:00
2:55 AM,32.0,24.1,73,30.46,10.0,South,5.8,-,N/A,,Overcast,180,2012-11-14 07:55:00
3:55 AM,33.1,25.0,72,30.47,10.0,South,10.4,-,N/A,,Overcast,180,2012-11-14 08:55:00
4:55 AM,33.1,26.1,75,30.47,10.0,South,5.8,-,N/A,,Overcast,190,2012-11-14 09:55:00
5:55 AM,33.1,26.1,75,30.48,10.0,South,4.6,-,N/A,,Overcast,170,2012-11-14 10:55:00
6:55 AM,33.1,26.1,75,30.48,10.0,SSE,4.6,-,N/A,,Overcast,160,2012-11-14 11:55:00
7:55 AM,33.1,26.1,75,30.48,10.0,South,8.1,-,N/A,,Overcast,170,2012-11-14 12:55:00
8:55 AM,34.0,27.0,75,30.48,10.0,South,9.2,-,N/A,,Overcast,170,2012-11-14 13:55:00
9:55 AM,36.0,28.0,73,30.49,10.0,South,10.4,-,N/A,,Overcast,190,2012-11-14 14:55:00
10:55 AM,37.0,28.9,73,30.50,10.0,South,9.2,-,N/A,,Overcast,180,2012-11-14 15:55:00
11:41 AM,37.0,30.0,76,30.47,9.0,South,8.1,-,0.00,,Overcast,180,2012-11-14 16:41:00
11:55 AM,37.0,30.9,79,30.48,10.0,South,5.8,-,0.00,Rain,Light Rain,180,2012-11-14 16:55:00
12:12 PM,37.0,30.0,76,30.46,9.0,South,9.2,-,0.00,,Overcast,180,2012-11-14 17:12:00
12:55 PM,37.0,30.9,79,30.47,7.0,South,6.9,-,0.00,Rain,Light Rain,170,2012-11-14 17:55:00
1:08 PM,37.9,32.0,79,30.44,8.0,South,6.9,-,0.01,Rain,Light Rain,180,2012-11-14 18:08:00
1:55 PM,39.0,30.9,73,30.45,10.0,SSE,8.1,-,0.01,,Overcast,160,2012-11-14 18:55:00
2:55 PM,37.9,30.0,73,30.43,10.0,SE,9.2,-,N/A,,Overcast,140,2012-11-14 19:55:00
3:55 PM,39.0,28.9,67,30.43,10.0,SSE,11.5,-,N/A,,Overcast,150,2012-11-14 20:55:00
4:55 PM,37.9,28.9,70,30.42,10.0,ESE,9.2,-,N/A,,Overcast,120,2012-11-14 21:55:00
5:55 PM,37.0,28.9,73,30.41,10.0,SSE,9.2,-,N/A,,Overcast,150,2012-11-14 22:55:00
6:55 PM,37.0,28.0,70,30.41,10.0,SE,6.9,-,N/A,,Overcast,140,2012-11-14 23:55:00
7:55 PM,36.0,27.0,70,30.41,10.0,SE,6.9,-,N/A,,Overcast,140,2012-11-15 00:55:00
8:55 PM,36.0,26.1,67,30.40,10.0,SE,8.1,-,N/A,,Overcast,140,2012-11-15 01:55:00
9:55 PM,37.0,26.1,65,30.40,10.0,SSE,6.9,-,N/A,,Overcast,150,2012-11-15 02:55:00
10:55 PM,36.0,25.0,64,30.38,10.0,SSE,9.2,-,N/A,,Overcast,150,2012-11-15 03:55:00
11:55 PM,35.1,25.0,67,30.38,10.0,SE,6.9,-,N/A,,Overcast,140,2012-11-15 04:55:00